FW1767 Weather Reports


time (UTC)temp
C
wind
direction
speed
KPH
gust
KPH
rain 1hr
cm
rain 24hr
cm
rain mn
cm
humidity
%
barometer
mb
20260505063035 19 0.0 0.0 0.00 0.00 0.00 24 1001.6
20260505061532 20 0.0 0.0 0.00 0.00 0.00 24 1001.6
20260505060025 20 0.0 0.0 0.00 0.00 0.00 23 1001.6
20260505054528 20 0.0 0.0 0.00 0.00 0.00 23 1001.5
20260505053023 21 0.0 0.0 0.00 0.00 0.00 22 1001.2
20260505051526 21 0.0 0.0 0.00 0.00 0.00 22 1000.9
20260505041521 23 0.0 0.0 0.00 0.00 0.00 20 1000.1
20260505040021 25 0.0 0.0 0.00 0.00 0.00 19 999.9
20260505034521 25 0.0 0.0 0.00 0.00 0.00 18 999.7
20260505033031 26 0.0 0.0 0.00 0.00 0.00 18 999.6
20260505031519 26 0.0 0.0 0.00 0.00 0.00 18 999.3
20260505030019 27 0.0 0.0 0.00 0.00 0.00 18 999.2
20260505024545 27 0.0 0.0 0.00 0.00 0.00 18 999.1
20260505023017 28 0.0 0.0 0.00 0.00 0.00 18 998.9
20260505021533 28 0.0 0.0 0.00 0.00 0.00 18 998.8
20260505020017 29 0.0 0.0 0.00 0.00 0.00 18 998.8
20260505014522 29 0.0 0.0 0.00 0.00 0.00 18 998.7
20260505013015 30 0.0 0.0 0.00 0.00 0.00 18 998.6
20260505011516 30 0.0 0.0 0.00 0.00 0.00 18 998.7
20260505010013 30 0.0 0.0 0.00 0.00 0.00 18 998.9
20260505004521 30 0.0 0.0 0.00 0.00 0.00 18 998.9
20260505003011 30 0.0 0.0 0.00 0.00 0.00 18 999.0
20260505001511 30 0.0 0.0 0.00 0.00 0.00 18 999.0
20260505000011 30 0.0 0.0 0.00 0.00 0.00 18 999.0
20260504234509 30 0.0 0.0 0.00 0.00 0.00 19 999.0
20260504233007 30 0.0 0.0 0.00 0.00 0.00 19 999.0
20260504231507 30 0.0 0.0 0.00 0.00 0.00 20 999.0
20260504230005 30 0.0 0.0 0.00 0.00 0.00 21 998.9
20260504224507 30 0.0 0.0 0.00 0.00 0.00 21 999.1
20260504223001 30 0.0 0.0 0.00 0.00 0.00 22 999.1
20260504221608 29 0.0 0.0 0.00 0.00 0.00 22 999.1
20260504220129 29 0.0 0.0 0.00 0.00 0.00 23 999.3
20260504214554 28 0.0 0.0 0.00 0.00 0.00 23 999.6
20260504213102 28 0.0 0.0 0.00 0.00 0.00 23 1000.0
20260504211546 28 0.0 0.0 0.00 0.00 0.00 23 1000.2
20260504210044 27 0.0 0.0 0.00 0.00 0.00 24 1000.4
20260504204557 27 0.0 0.0 0.00 0.00 0.00 24 1000.6
20260504203038 26 0.0 0.0 0.00 0.00 0.00 25 1000.8
20260504201534 26 0.0 0.0 0.00 0.00 0.00 26 1000.9
20260504200032 25 0.0 0.0 0.00 0.00 0.00 28 1001.0
20260504194531 25 0.0 0.0 0.00 0.00 0.00 28 1001.3
20260504193024 24 0.0 0.0 0.00 0.00 0.00 29 1001.4
20260504191520 23 0.0 0.0 0.00 0.00 0.00 30 1001.6
20260504190019 23 0.0 0.0 0.00 0.00 0.00 31 1002.0
20260504184516 22 0.0 0.0 0.00 0.00 0.00 32 1002.4
20260504183008 21 0.0 0.0 0.00 0.00 0.00 33 1002.7
20260504181504 20 0.0 0.0 0.00 0.00 0.00 34 1002.9
20260504180100 20 0.0 0.0 0.00 0.00 0.00 35 1003.1
20260504174557 18 0.0 0.0 0.00 0.00 0.00 36 1003.2
20260504173058 17 0.0 0.0 0.00 0.00 0.00 37 1003.4
20260504171556 17 0.0 0.0 0.00 0.00 0.00 37 1003.5
20260504081600 15 0.0 0.0 0.00 0.00 0.00 22 1002.8